Regional Weather Roundup
Issued by NWS Little Rock, AR

Home | Current Version | Previous Version | Text Only | Print | Product List | Glossary On
Versions: 1 2 3 4 5 6 7 8 9 10 11 12 13 14 15 16 17 18 19 20 21 22 23 24 25 26 27 28 29 30 31 32 33 34 35 36 37 38 39 40 41 42 43 44 45 46 47 48 49 50
000
ASUS44 KLZK 280105
RWRLZK

WEATHER ROUNDUP FOR ARKANSAS
NATIONAL WEATHER SERVICE LITTLE ROCK AR
800 PM CDT WED AUG 27 2014

NOTE: "FAIR" INDICATES FEW OR NO CLOUDS BELOW 12,000 FEET WITH NO
SIGNIFICANT WEATHER AND/OR OBSTRUCTIONS TO VISIBILITY.

ARZ001-003-010-029-280200-
NORTHWEST ARKANSAS

CITY           SKY/WX    TMP DP  RH WIND       PRES   REMARKS
FAYETTEVILLE   PTCLDY    82  70  66 S3        30.03R HX  86
FORT SMITH     PTCLDY    87  68  52 SE5       29.98R HX  90
HARRISON       CLEAR     83  69  62 S8        30.04R HX  86
BENTONVILLE    MOCLDY    84  66  54 S7        30.05R HX  86
ROGERS         PTCLDY    86  67  52 S13       30.04R HX  89
SILOAM SPGS      N/A     81  63  54 S6        30.04R
HIGHFILL       PTCLDY    83  67  58 SW6       30.03R HX  85
SPRINGDALE     PTCLDY    84  70  61 SW9       30.05R HX  88
$$

ARZ004-005-016-280200-
NORTH CENTRAL ARKANSAS

CITY           SKY/WX    TMP DP  RH WIND       PRES   REMARKS
BATESVILLE     CLEAR     86  70  58 SE3       30.01S HX  90
FLIPPIN        MOCLDY    84  66  54 SE3       30.02R HX  86
MTN HOME       MOCLDY    84  68  58 SE6       30.02R HX  87
$$

ARZ040-041-280200-
WEST CENTRAL ARKANSAS

CITY           SKY/WX    TMP DP  RH WIND       PRES   REMARKS
MENA           PTCLDY    82  72  69 CALM      30.03R HX  87
MOUNT IDA      CLEAR     81  72  74 CALM      30.00R HX  85
$$

ARZ009-017-025-026-028-280200-
NORTHEAST ARKANSAS

CITY           SKY/WX    TMP DP  RH WIND       PRES   REMARKS
CORNING          N/A     82  75  78 CALM      30.02R HX  89
JONESBORO      CLEAR     84  71  65 E3        30.01R HX  89
NEWPORT        CLEAR     84  74  72 SE5       30.01S HX  91
WALNUT RIDGE   PTCLDY    82  55  39 SE5       30.00R
BLYTHEVILLE    CLEAR     83  75  77 CALM      30.02R HX  90
$$

ARZ022-023-033-042-044-280200-
CENTRAL ARKANSAS

CITY           SKY/WX    TMP DP  RH WIND       PRES   REMARKS
LITTLE ROCK    PTCLDY    83  66  56 SE5       30.00R HX  85
N LITTLE ROCK  PTCLDY    84  70  63 SE6       30.00R HX  88
JACKSONVILLE   CLEAR     81  73  76 SE1       30.00S HX  85
SEARCY         CLEAR     82  74  77 MISG      30.01R HX  88
HOT SPRINGS    CLEAR     85  68  56 S5        30.01R HX  88
RUSSELLVILLE   PTCLDY    81  72  74 E3        29.99S HX  85
CLINTON        FAIR      84  70  61 CALM      30.01S HX  88
$$

ARZ036-280200-
EAST ARKANSAS

CITY           SKY/WX    TMP DP  RH WIND       PRES   REMARKS
WEST MEMPHIS   CLEAR     79  69  71 CALM      29.99R
$$

ARZ050-053-066-070-073-280200-
SOUTHWEST ARKANSAS

CITY           SKY/WX    TMP DP  RH WIND       PRES   REMARKS
ARKADELPHIA    FAIR      82  78  88 CALM      29.99S HX  91
CAMDEN         CLEAR     77  70  78 CALM      29.98S
TEXARKANA      CLEAR     83  68  60 CALM      29.98S HX  86
EL DORADO      CLEAR     77  72  84 CALM      29.99S
DE QUEEN       CLEAR     80  73  79 CALM      29.97R
$$

ARZ056-057-069-280200-
SOUTHEAST ARKANSAS

CITY           SKY/WX    TMP DP  RH WIND       PRES   REMARKS
PINE BLUFF     CLEAR     81  72  74 E3        29.99S HX  85
STUTTGART      CLEAR     84  70  61 E5        30.01R HX  88
MONTICELLO     CLEAR     82  69  64 CALM      29.98F HX  85

$$





USA.gov is the U.S. government's official web portal to all federal, state and local government web resources and services.